[[{"header":{"parameterUnit":"m.s-1","parameterCategory":1,"la1":30.2991,"la2":30.254,"lo1":-89.0895,"lo2":-89.0444,"dx":0.0017,"dy":0.0017,"nx":28,"ny":28,"refTime":"2022-12-02T09:00:00:Z","depth":0,"parameterNumber":2,"parameterNumberName":"U-component_of_WINDS"},"data":[0,0,0,0,0,0,0,0,0,0,0,0,0,0,0,0,0,0,0,0,0,0,0,0,0,0,0,0,0,0,0,0,0,0,0,0,0,0,0,0,0,0,0,0,0,0,0,0,0,0,0,0,0,0,0,0,0,0,-0.0922,-0.0922,0,-0.0875,-0.0874,-0.0874,-0.0872,-0.0873,-0.0873,-0.0874,-0.0824,-0.0822,-0.0821,0,0,0,0,0,0,0,0,0,0,0,0,0,-0.1009,-0.1008,-0.0922,-0.0922,-0.0921,-0.0875,-0.0874,-0.0874,-0.0872,-0.0873,-0.0873,-0.0874,-0.0825,-0.0823,-0.082,0,0,0,0,0,0,0,0,0,0,0,0,0,-0.0968,-0.1007,-0.0922,-0.0915,-0.0913,-0.0875,-0.0874,-0.0874,-0.0872,-0.0873,-0.0874,-0.0874,-0.0826,-0.0823,-0.082,-0.0786,0,0,-0.0812,-0.081,0,0,0,0,0,0,0,0,-0.097,-0.0965,-0.0916,-0.0915,-0.0914,-0.088,-0.0887,-0.0844,-0.0872,-0.0888,-0.0874,-0.0875,-0.0842,-0.0838,-0.0827,-0.0783,-0.0781,-0.0811,-0.081,-0.0808,-0.0808,0,0,0,0,0,0,0,-0.0973,-0.0967,-0.0903,-0.0916,-0.0914,-0.0913,-0.0908,-0.0879,-0.0861,-0.0886,-0.0886,-0.0881,-0.0842,-0.083,-0.0826,-0.0781,-0.0811,-0.0809,-0.0807,-0.0806,-0.0706,-0.0705,0,0,0,0,0,0,-0.0978,-0.0969,-0.0905,-0.0902,-0.0945,-0.0911,-0.0905,-0.089,-0.0861,-0.0857,-0.088,-0.0881,-0.0834,-0.0829,-0.0824,-0.0781,-0.0808,-0.0806,-0.0804,-0.0707,-0.0705,-0.0704,0,0,0,0,0,0,-0.098,-0.0972,-0.0907,-0.0935,-0.0927,-0.0908,-0.0891,-0.0889,-0.0877,-0.0856,-0.0853,-0.0871,-0.0835,-0.0828,-0.0795,-0.078,-0.0805,-0.0802,-0.0708,-0.0706,-0.0705,-0.0696,0,0,0,0,0,0,-0.0982,-0.0973,-0.096,-0.0935,-0.0926,-0.0879,-0.0891,-0.0887,-0.0872,-0.0873,-0.0847,-0.0844,-0.0835,-0.0799,-0.0793,-0.0776,-0.08,-0.0709,-0.0707,-0.0705,-0.0697,-0.0694,-0.0692,0,0,0,0,0,-0.0985,-0.0959,-0.0959,-0.0951,-0.0909,-0.0878,-0.0872,-0.0863,-0.0871,-0.0858,-0.0844,-0.0845,-0.0783,-0.0796,-0.0788,-0.0771,-0.071,-0.0708,-0.0706,-0.0699,-0.0695,-0.0692,0,0,0,0,0,0,-0.0982,-0.0956,-0.0955,-0.0921,-0.0902,-0.0878,-0.086,-0.0859,-0.0837,-0.0839,-0.0828,-0.0822,-0.0789,-0.0777,-0.0792,-0.0736,-0.0747,-0.0743,-0.0745,-0.0741,-0.0738,-0.0741,-0.0798,0,0,0,0,0,-0.0977,-0.0954,-0.0933,-0.0904,-0.0894,-0.0879,-0.0865,-0.086,-0.084,-0.0831,-0.0815,-0.0795,-0.0771,-0.0756,-0.0733,-0.0696,-0.069,-0.0681,-0.0678,-0.0675,-0.0672,-0.0651,-0.0646,-0.0697,-0.0697,-0.0697,0,0,-0.0967,-0.095,-0.0936,-0.0903,-0.0887,-0.0864,-0.0872,-0.0847,-0.0829,-0.0827,-0.0795,-0.0783,-0.076,-0.0725,-0.0709,-0.0714,-0.0656,-0.0672,-0.0671,-0.0668,-0.0648,-0.0643,-0.0639,-0.0695,-0.0696,-0.0696,0,0,-0.0935,-0.0921,-0.0895,-0.0879,-0.0856,-0.0846,-0.084,-0.0816,-0.0808,-0.0776,-0.0774,-0.0753,-0.0712,-0.0695,-0.0681,-0.0644,-0.0643,-0.0637,-0.0621,-0.0601,-0.0597,-0.0593,-0.0579,-0.0574,-0.0634,-0.0634,-0.0634,0,-0.0925,-0.089,-0.0881,-0.0856,-0.0841,-0.0839,-0.0812,-0.0798,-0.0768,-0.0758,-0.0764,-0.0712,-0.0697,-0.0657,-0.0648,-0.0638,-0.063,-0.0639,-0.0598,-0.0594,-0.0591,-0.0577,-0.0572,-0.0633,-0.0633,-0.0633,-0.0633,0,-0.0878,-0.0853,-0.0835,-0.0807,-0.079,-0.0764,-0.0751,-0.0735,-0.0732,-0.0721,-0.0688,-0.0669,-0.0642,-0.0632,-0.0628,-0.0592,-0.0596,-0.06,-0.0611,-0.0585,-0.0572,-0.0567,-0.0632,-0.0632,-0.0632,-0.0633,0,0,-0.0842,-0.081,-0.0803,-0.079,-0.0764,-0.0745,-0.0719,-0.0693,-0.0678,-0.0658,-0.0635,-0.0601,-0.0605,-0.0589,-0.0584,-0.0566,-0.0537,-0.0572,-0.0572,-0.0565,-0.0494,-0.049,-0.0484,-0.0536,-0.0535,-0.0535,-0.0496,0,-0.0807,-0.0761,-0.0753,-0.0712,-0.0688,-0.0687,-0.0664,-0.0645,-0.0635,-0.0613,-0.0601,-0.0577,-0.0584,-0.0575,-0.0557,-0.0544,-0.0522,-0.0547,-0.0514,-0.0513,-0.0518,-0.0478,-0.0473,-0.0438,-0.0491,-0.049,-0.0489,0,-0.076,-0.0739,-0.0695,-0.0673,-0.0663,-0.0642,-0.0617,-0.0597,-0.0576,-0.0569,-0.0552,-0.0548,-0.0521,-0.0534,-0.0495,-0.0512,-0.0499,-0.049,-0.0488,-0.0484,-0.0499,-0.0471,-0.0426,-0.042,-0.0481,-0.0482,-0.0483,0,-0.0737,-0.0697,-0.0666,-0.0655,-0.0628,-0.0614,-0.0602,-0.0582,-0.0566,-0.0544,-0.0534,-0.051,-0.0496,-0.0476,-0.0466,-0.0477,-0.0427,-0.044,-0.042,-0.0421,-0.0409,-0.0409,-0.036,-0.0403,-0.0403,-0.0403,-0.0403,0,-0.0698,-0.0671,-0.0655,-0.0636,-0.0606,-0.0597,-0.0567,-0.0556,-0.0538,-0.0516,-0.0513,-0.0492,-0.0481,-0.0458,-0.045,-0.0418,-0.0412,-0.0406,-0.0404,-0.0405,-0.0406,-0.0395,-0.0397,-0.0401,-0.0402,-0.0402,-0.0402,0,-0.0666,-0.0654,-0.062,-0.0598,-0.0591,-0.057,-0.055,-0.0531,-0.0521,-0.0493,-0.0486,-0.047,-0.0444,-0.0432,-0.0399,-0.0393,-0.0357,-0.0357,-0.0364,-0.0363,-0.0343,-0.0345,-0.0284,-0.0275,-0.0325,-0.0324,-0.0324,0,-0.0641,-0.062,-0.0596,-0.0581,-0.0568,-0.0545,-0.0529,-0.052,-0.0503,-0.0478,-0.0462,-0.0435,-0.0413,-0.0371,-0.0356,-0.0331,-0.0329,-0.031,-0.0326,-0.0328,-0.0328,-0.0328,-0.0326,-0.0307,-0.0306,-0.0306,-0.0305,0,-0.0598,-0.0593,-0.0571,-0.0546,-0.0528,-0.0508,-0.0488,-0.0476,-0.0464,-0.0446,-0.0419,-0.0402,-0.0368,-0.0341,-0.0315,-0.0303,-0.0301,-0.0301,-0.0295,-0.0295,-0.0299,-0.0296,-0.0355,-0.0302,-0.0302,-0.0303,-0.0303,-0.0303,-0.0568,-0.0549,-0.0528,-0.0503,-0.0488,-0.047,-0.0451,-0.0438,-0.0416,-0.0388,-0.0384,-0.0355,-0.0334,-0.0299,-0.0285,-0.0262,-0.0267,-0.0258,-0.0256,-0.0253,-0.0251,-0.0305,-0.0257,-0.0257,-0.0258,-0.0258,-0.0258,0,-0.0523,-0.051,-0.0487,-0.046,-0.044,-0.0442,-0.0421,-0.0404,-0.0378,-0.0359,-0.0338,-0.0306,-0.0281,-0.0264,-0.0238,-0.0222,-0.0221,-0.0216,-0.0216,-0.0213,-0.0249,-0.0257,-0.0217,-0.0217,-0.0217,-0.0217,-0.0217,-0.0217,-0.0497,-0.0466,-0.0459,-0.0419,-0.0406,-0.0377,-0.0365,-0.0348,-0.0333,-0.0298,-0.0276,-0.0266,-0.0248,-0.022,-0.0196,-0.0192,-0.0182,-0.0176,-0.0172,-0.0206,-0.021,-0.0214,-0.0221,-0.0174,-0.0174,-0.0137,-0.0137,-0.0136]},{"header":{"parameterUnit":"m.s-1","parameterCategory":1,"la1":30.2991,"la2":30.254,"lo1":-89.0895,"lo2":-89.0444,"dx":0.0017,"dy":0.0017,"nx":28,"ny":28,"refTime":"2022-12-02T09:00:00:Z","depth":0,"parameterNumber":3,"parameterNumberName":"V-component_of_WINDS"},"data":[0,0,0,0,0,0,0,0,0,0,0,0,0,0,0,0,0,0,0,0,0,0,0,0,0,0,0,0,0,0,0,0,0,0,0,0,0,0,0,0,0,0,0,0,0,0,0,0,0,0,0,0,0,0,0,0,0,0,1.5158,1.5158,0,1.5201,1.5201,1.5202,1.52,1.5199,1.5198,1.5198,1.5239,1.5241,1.5243,0,0,0,0,0,0,0,0,0,0,0,0,0,1.507,1.5071,1.5158,1.5158,1.5159,1.5201,1.5202,1.5202,1.52,1.5199,1.5198,1.5197,1.5239,1.5241,1.5243,0,0,0,0,0,0,0,0,0,0,0,0,0,1.511,1.5072,1.5157,1.5163,1.5164,1.5201,1.5202,1.5202,1.52,1.5199,1.5198,1.5197,1.5238,1.5241,1.5243,1.5277,0,0,1.5251,1.5252,0,0,0,0,0,0,0,0,1.5107,1.5113,1.5161,1.5162,1.5163,1.5194,1.5186,1.5227,1.52,1.5186,1.5198,1.5197,1.5225,1.5228,1.5238,1.5279,1.5281,1.5251,1.5252,1.5254,1.5254,0,0,0,0,0,0,0,1.5105,1.5111,1.5175,1.5162,1.5163,1.5162,1.5166,1.5194,1.521,1.5187,1.5187,1.5192,1.5225,1.5236,1.5239,1.5281,1.5251,1.5253,1.5255,1.5256,1.5352,1.5353,0,0,0,0,0,0,1.5101,1.5109,1.5173,1.5176,1.5133,1.5164,1.5169,1.5185,1.521,1.5213,1.5193,1.5192,1.5232,1.5236,1.5241,1.5282,1.5254,1.5256,1.5257,1.5351,1.5352,1.5353,0,0,0,0,0,0,1.5099,1.5107,1.5172,1.5142,1.5151,1.5167,1.5184,1.5186,1.5197,1.5214,1.5217,1.5201,1.5232,1.5237,1.5268,1.5284,1.5257,1.5259,1.5349,1.5351,1.5352,1.5366,0,0,0,0,0,0,1.5097,1.5106,1.512,1.5143,1.5152,1.5199,1.5185,1.5188,1.5202,1.5201,1.5223,1.5225,1.5231,1.5264,1.5271,1.5287,1.5261,1.5348,1.535,1.5352,1.5364,1.5368,1.5371,0,0,0,0,0,1.5094,1.5122,1.5121,1.5129,1.517,1.52,1.5205,1.5213,1.5203,1.5217,1.5228,1.5225,1.5281,1.5268,1.5275,1.5292,1.5347,1.535,1.5352,1.5363,1.5367,1.5371,0,0,0,0,0,0,1.51,1.5125,1.5124,1.5161,1.5178,1.52,1.5217,1.5217,1.5237,1.5235,1.5242,1.5247,1.5278,1.5288,1.5273,1.5326,1.5313,1.5317,1.5319,1.5323,1.5326,1.5323,1.5263,0,0,0,0,0,1.5105,1.5129,1.5149,1.5179,1.5188,1.5201,1.5214,1.5218,1.5237,1.5244,1.5257,1.5274,1.5296,1.531,1.533,1.5365,1.537,1.538,1.5384,1.5386,1.539,1.5409,1.5414,1.5361,1.5361,1.5361,0,0,1.5117,1.5134,1.5148,1.5181,1.5195,1.5218,1.5207,1.5232,1.525,1.5247,1.5278,1.5288,1.5307,1.534,1.5356,1.535,1.5405,1.5389,1.5391,1.5393,1.5412,1.5417,1.5421,1.5362,1.5362,1.5362,0,0,1.515,1.5165,1.5192,1.5207,1.5229,1.5237,1.5244,1.5265,1.5272,1.5303,1.5302,1.5321,1.5358,1.5372,1.5384,1.5423,1.542,1.5429,1.5446,1.5465,1.5469,1.5473,1.5487,1.5491,1.5432,1.5432,1.5432,0,1.5162,1.5198,1.5206,1.5231,1.5246,1.5245,1.5272,1.5285,1.5313,1.5322,1.5315,1.5361,1.5374,1.5411,1.542,1.543,1.5437,1.5427,1.5468,1.5472,1.5475,1.5489,1.5494,1.5433,1.5433,1.5433,1.5433,0,1.5211,1.5236,1.5255,1.5283,1.5299,1.5324,1.5335,1.535,1.5353,1.5361,1.5392,1.5408,1.5432,1.544,1.5442,1.5477,1.5473,1.5467,1.5454,1.5481,1.5494,1.5499,1.5434,1.5434,1.5434,1.5433,0,0,1.525,1.5282,1.5289,1.5301,1.5325,1.5344,1.5369,1.5394,1.5406,1.5425,1.5446,1.5477,1.5472,1.5485,1.5489,1.5505,1.5534,1.5497,1.5497,1.5504,1.5573,1.5578,1.5584,1.5533,1.5534,1.5534,1.5572,0,1.5286,1.5333,1.534,1.5381,1.5404,1.5404,1.5426,1.5442,1.5451,1.5471,1.548,1.5502,1.5493,1.5501,1.5517,1.5527,1.5548,1.5525,1.5552,1.5553,1.5548,1.559,1.5596,1.563,1.5577,1.5577,1.5578,0,1.5335,1.5356,1.5399,1.542,1.543,1.545,1.5473,1.5492,1.551,1.5515,1.553,1.5532,1.5557,1.5543,1.5577,1.5561,1.5572,1.5579,1.558,1.5584,1.5568,1.5595,1.5641,1.5647,1.5586,1.5585,1.5585,0,1.536,1.5399,1.543,1.544,1.5465,1.5479,1.549,1.5508,1.5522,1.5541,1.555,1.5572,1.5583,1.56,1.5606,1.5595,1.5641,1.5627,1.5645,1.5645,1.5655,1.5655,1.5704,1.5662,1.5662,1.5662,1.5662,0,1.54,1.5426,1.5441,1.546,1.5489,1.5497,1.5525,1.5535,1.5551,1.5571,1.5572,1.559,1.5598,1.5618,1.5623,1.5651,1.5656,1.566,1.5662,1.5661,1.566,1.5669,1.5667,1.5663,1.5663,1.5662,1.5662,0,1.5433,1.5444,1.5478,1.5499,1.5504,1.5525,1.5543,1.5561,1.5569,1.5595,1.5601,1.5614,1.5637,1.5645,1.5673,1.5676,1.5709,1.5708,1.5703,1.5704,1.5722,1.572,1.5779,1.5787,1.5739,1.5739,1.574,0,1.5458,1.5479,1.5502,1.5516,1.5528,1.5551,1.5565,1.5573,1.5588,1.561,1.5625,1.5648,1.5668,1.5704,1.5716,1.5737,1.5736,1.5755,1.574,1.5738,1.5737,1.5736,1.5738,1.5759,1.5759,1.576,1.576,0,1.5502,1.5506,1.5528,1.5552,1.5569,1.5588,1.5606,1.5617,1.5627,1.5643,1.5668,1.5683,1.5711,1.5734,1.5756,1.5766,1.5765,1.5765,1.577,1.577,1.5767,1.5769,1.5712,1.5764,1.5763,1.5763,1.5763,1.5763,1.5532,1.555,1.557,1.5594,1.5608,1.5625,1.5643,1.5654,1.5675,1.57,1.5702,1.5728,1.5745,1.5774,1.5785,1.5805,1.58,1.5808,1.581,1.5812,1.5813,1.5763,1.5809,1.5809,1.5809,1.5809,1.5808,0,1.5576,1.5589,1.5611,1.5637,1.5655,1.5653,1.5672,1.5688,1.5711,1.5728,1.5747,1.5774,1.5796,1.5809,1.5831,1.5844,1.5844,1.585,1.5849,1.5852,1.5817,1.581,1.585,1.585,1.585,1.585,1.585,1.585,1.5602,1.5633,1.5639,1.5677,1.5689,1.5715,1.5727,1.5742,1.5755,1.5786,1.5805,1.5814,1.5828,1.5851,1.5871,1.5874,1.5882,1.5889,1.5891,1.5858,1.5854,1.585,1.5844,1.589,1.589,1.5925,1.5925,1.5925]}]]